DW5828 Weather Reports


Display with metric or nautical units.
time (UTC)temp
F
wind
direction
speed
MPH
gust
MPH
rain 1hr
in
rain 24hr
in
rain mn
in
humidity
%
barometer
mb
20260504000046 64 0 0.0 2.0 0.00 0.00 0.00 31 1003.0
20260503235531 64 14 1.0 2.0 0.00 0.00 0.00 30 1003.0
20260503235031 64 341 0.0 4.0 0.00 0.00 0.00 29 1002.9
20260503234544 65 15 1.0 4.0 0.00 0.00 0.00 29 1002.9
20260503234031 65 352 1.0 4.0 0.00 0.00 0.00 28 1002.9
20260503233530 65 18 1.0 3.0 0.00 0.00 0.00 29 1002.8
20260503233043 65 0 1.0 3.0 0.00 0.00 0.00 27 1002.9
20260503232530 65 344 1.0 3.0 0.00 0.00 0.00 26 1002.9
20260503232030 65 0 1.0 3.0 0.00 0.00 0.00 27 1002.9
20260503231546 65 40 0.0 4.0 0.00 0.00 0.00 28 1003.1
20260503231030 65 347 1.0 4.0 0.00 0.00 0.00 26 1003.1
20260503230534 65 339 2.0 4.0 0.00 0.00 0.00 27 1003.1
20260503230104 65 336 2.0 4.0 0.00 0.00 0.00 26 1003.0
20260503225532 66 103 0.0 4.0 0.00 0.00 0.00 27 1003.1
20260503225035 66 59 1.0 4.0 0.00 0.00 0.00 26 1003.1
20260503224545 66 351 2.0 4.0 0.00 0.00 0.00 25 1003.1
20260503224034 66 43 2.0 4.0 0.00 0.00 0.00 25 1003.1
20260503223533 66 4 2.0 5.0 0.00 0.00 0.00 24 1003.1
20260503223044 67 11 2.0 5.0 0.00 0.00 0.00 24 1003.2
20260503222530 67 13 2.0 4.0 0.00 0.00 0.00 24 1003.2
20260503222030 67 26 1.0 5.0 0.00 0.00 0.00 24 1003.2
20260503221541 67 41 1.0 5.0 0.00 0.00 0.00 26 1003.2
20260503221030 68 330 2.0 5.0 0.00 0.00 0.00 22 1003.2
20260503220531 68 335 2.0 5.0 0.00 0.00 0.00 25 1003.2
20260503220049 68 102 2.0 5.0 0.00 0.00 0.00 23 1003.2
20260503215530 68 32 2.0 5.0 0.00 0.00 0.00 26 1003.2
20260503215031 68 2 1.0 7.0 0.00 0.00 0.00 24 1003.3
20260503214544 67 352 4.0 7.0 0.00 0.00 0.00 22 1003.3
20260503214032 68 14 3.0 7.0 0.00 0.00 0.00 22 1003.3
20260503213533 68 331 3.0 6.0 0.00 0.00 0.00 23 1003.3
20260503213045 68 12 2.0 5.0 0.00 0.00 0.00 23 1003.3
20260503212533 68 38 2.0 5.0 0.00 0.00 0.00 23 1003.4
20260503212031 68 34 2.0 6.0 0.00 0.00 0.00 24 1003.2
20260503211547 68 27 2.0 6.0 0.00 0.00 0.00 25 1003.4
20260503211032 68 358 3.0 6.0 0.00 0.00 0.00 23 1003.3
20260503210530 68 343 2.0 5.0 0.00 0.00 0.00 24 1003.2
20260503210043 68 347 3.0 7.0 0.00 0.00 0.00 23 1003.4
20260503205531 68 40 2.0 7.0 0.00 0.00 0.00 23 1003.4
20260503205031 69 344 4.0 7.0 0.00 0.00 0.00 23 1003.4
20260503204543 69 333 2.0 5.0 0.00 0.00 0.00 26 1003.4
20260503204031 69 20 3.0 8.0 0.00 0.00 0.00 25 1003.4
20260503203530 68 342 2.0 8.0 0.00 0.00 0.00 26 1003.5
20260503203101 69 342 4.0 8.0 0.00 0.00 0.00 24 1003.5
20260503202530 69 338 2.0 5.0 0.00 0.00 0.00 26 1003.4
20260503202030 69 257 1.0 5.0 0.00 0.00 0.00 27 1003.5
20260503201545 69 349 3.0 5.0 0.00 0.00 0.00 27 1003.5
20260503201032 70 28 1.0 5.0 0.00 0.00 0.00 27 1003.5
20260503200533 69 38 1.0 6.0 0.00 0.00 0.00 31 1003.5
20260503200046 69 52 3.0 6.0 0.00 0.00 0.00 24 1003.5
20260503195533 69 11 1.0 7.0 0.00 0.00 0.00 28 1003.5
20260503195032 69 60 2.0 7.0 0.00 0.00 0.00 29 1003.7
20260503194546 69 34 1.0 6.0 0.00 0.00 0.00 28 1003.7
20260503194031 69 52 3.0 5.0 0.00 0.00 0.00 30 1003.8
20260503193533 68 53 2.0 6.0 0.00 0.00 0.00 30 1003.9
20260503193043 68 29 2.0 7.0 0.00 0.00 0.00 30 1003.9
20260503192531 68 334 4.0 7.0 0.00 0.00 0.00 31 1003.9
20260503192030 69 341 2.0 7.0 0.00 0.00 0.00 34 1003.8
20260503191547 69 331 3.0 6.0 0.00 0.00 0.00 36 1003.8
20260503191030 69 319 3.0 6.0 0.00 0.00 0.00 34 1003.8
20260503190533 69 74 2.0 6.0 0.00 0.00 0.00 36 1003.7
20260503190056 69 331 3.0 6.0 0.00 0.00 0.00 32 1003.7
20260503185533 69 327 4.0 6.0 0.00 0.00 0.00 32 1003.8
20260503185034 69 336 1.0 7.0 0.00 0.00 0.00 35 1003.8
20260503184542 69 15 3.0 7.0 0.00 0.00 0.00 38 1003.9
20260503184030 69 8 3.0 7.0 0.00 0.00 0.00 39 1003.8
20260503183532 69 343 3.0 7.0 0.00 0.00 0.00 37 1003.9
20260503183045 69 337 2.0 7.0 0.00 0.00 0.00 39 1003.8
20260503182532 69 53 2.0 7.0 0.00 0.00 0.00 39 1003.8
20260503182030 69 342 1.0 7.0 0.00 0.00 0.00 38 1003.9
20260503181554 69 344 2.0 5.0 0.00 0.00 0.00 40 1004.0
20260503181034 69 356 1.0 5.0 0.00 0.00 0.00 37 1004.0
20260503180531 69 340 2.0 4.0 0.00 0.00 0.00 39 1004.1
20260503180052 68 22 1.0 6.0 0.00 0.00 0.00 40 1004.1
20260503175530 68 345 2.0 8.0 0.00 0.00 0.00 39 1004.1
20260503175030 68 17 2.0 8.0 0.00 0.00 0.00 38 1004.2
20260503174553 68 56 2.0 7.0 0.00 0.00 0.00 39 1004.4
20260503174034 68 318 3.0 7.0 0.00 0.00 0.00 40 1004.4
20260503173530 68 356 2.0 6.0 0.00 0.00 0.00 42 1004.4
20260503173100 67 15 2.0 6.0 0.00 0.00 0.00 38 1004.4
20260503172531 67 331 2.0 6.0 0.00 0.00 0.00 38 1004.5
20260503172033 67 349 2.0 6.0 0.00 0.00 0.00 42 1004.6
20260503171545 67 3 3.0 6.0 0.00 0.00 0.00 39 1004.5
20260503171035 67 337 2.0 5.0 0.00 0.00 0.00 46 1004.5
20260503170533 67 6 2.0 5.0 0.00 0.00 0.00 40 1004.4
20260503150530 63 347 1.0 3.0 0.00 0.00 0.00 46 1004.5
20260503131030 56 248 0.0 4.0 0.00 0.00 0.00 60 1004.2
20260503130531 55 200 3.0 4.0 0.00 0.00 0.00 59 1004.0
20260503110533 46 224 0.0 1.0 0.00 0.00 0.00 72 1004.0
20260503081555 51 223 4.0 7.0 0.00 0.00 0.00 63 1004.7
20260503081033 51 188 4.0 8.0 0.00 0.00 0.00 62 1004.7
20260503080530 51 161 3.0 8.0 0.00 0.00 0.00 62 1004.8
20260503072530 52 185 3.0 8.0 0.00 0.00 0.00 59 1005.5
20260503072031 53 153 3.0 8.0 0.00 0.00 0.00 59 1005.6
20260503071547 53 162 4.0 8.0 0.00 0.00 0.00 58 1005.7
20260503071029 53 204 4.0 6.0 0.00 0.00 0.00 59 1005.8
20260503070532 53 174 2.0 6.0 0.00 0.00 0.00 59 1005.8
20260503060110 53 193 3.0 5.0 0.00 0.00 0.00 58 1006.7
20260503055033 54 174 2.0 4.0 0.00 0.00 0.00 59 1006.8
20260503054600 54 210 2.0 5.0 0.00 0.00 0.00 58 1006.9
20260503054033 54 181 2.0 6.0 0.00 0.00 0.00 58 1006.9
20260503053532 55 199 3.0 6.0 0.00 0.00 0.00 58 1006.9
20260503053044 55 171 3.0 6.0 0.00 0.00 0.00 56 1007.0
20260503052534 55 190 3.0 6.0 0.00 0.00 0.00 57 1007.0
20260503052034 55 216 3.0 5.0 0.00 0.00 0.00 57 1007.0
20260503051545 55 183 2.0 5.0 0.00 0.00 0.00 56 1007.1
20260503051030 55 224 3.0 5.0 0.00 0.00 0.00 57 1007.3
20260503050530 55 226 2.0 6.0 0.00 0.00 0.00 56 1007.3
20260503050049 54 193 3.0 6.0 0.00 0.00 0.00 57 1007.4
20260503045532 54 130 3.0 6.0 0.00 0.00 0.00 57 1007.3
20260503045032 54 193 3.0 6.0 0.00 0.00 0.00 58 1007.4
20260503044550 53 186 3.0 6.0 0.00 0.00 0.00 61 1007.4
20260503044029 54 184 2.0 6.0 0.00 0.00 0.00 61 1007.6
20260503043533 54 145 1.0 3.0 0.00 0.00 0.00 64 1007.6
20260503043048 54 0 0.0 0.0 0.00 0.00 0.00 59 1007.8
20260503042536 54 0 0.0 0.0 0.00 0.00 0.00 58 1007.8
20260503042034 54 0 0.0 0.0 0.00 0.00 0.00 57 1007.8
20260503041547 54 0 0.0 0.0 0.00 0.00 0.00 57 1007.9
20260503041036 54 0 0.0 3.0 0.00 0.00 0.00 57 1007.9
20260503040532 55 0 1.0 3.0 0.00 0.00 0.00 59 1008.0
20260503040048 55 204 2.0 3.0 0.00 0.00 0.00 58 1007.9
20260503035532 55 165 1.0 2.0 0.00 0.00 0.00 58 1008.1
20260503035032 55 0 0.0 1.0 0.00 0.00 0.00 56 1008.3
20260503034543 55 0 0.0 1.0 0.00 0.00 0.00 55 1008.2
20260503034032 55 0 0.0 1.0 0.00 0.00 0.00 55 1008.3
20260503033535 55 0 0.0 1.0 0.00 0.00 0.00 55 1008.3
20260503033044 55 0 0.0 2.0 0.00 0.00 0.00 54 1008.5
20260503032532 55 0 0.0 2.0 0.00 0.00 0.00 55 1008.5
20260503032030 55 0 0.0 2.0 0.00 0.00 0.00 54 1008.5
20260503031549 55 264 0.0 2.0 0.00 0.00 0.00 55 1008.6
20260503031030 55 0 0.0 2.0 0.00 0.00 0.00 54 1008.7
20260503030534 55 237 0.0 2.0 0.00 0.00 0.00 55 1008.7
20260503030048 55 248 0.0 2.0 0.00 0.00 0.00 54 1008.7
20260503025532 55 0 0.0 1.0 0.00 0.00 0.00 55 1008.8
20260503025034 55 0 0.0 1.0 0.00 0.00 0.00 56 1008.8
20260503024547 55 220 0.0 3.0 0.00 0.00 0.00 56 1008.9
20260503024033 56 270 0.0 3.0 0.00 0.00 0.00 55 1008.8
20260503023533 56 270 1.0 3.0 0.00 0.00 0.00 55 1008.8
20260503023042 56 217 0.0 3.0 0.00 0.00 0.00 55 1008.8
20260503022532 56 217 0.0 3.0 0.00 0.00 0.00 54 1008.9
20260503022032 56 0 0.0 1.0 0.00 0.00 0.00 54 1009.0
20260503021543 57 0 0.0 1.0 0.00 0.00 0.00 53 1009.0
20260503021032 57 0 0.0 1.0 0.00 0.00 0.00 52 1009.0
20260503020532 57 0 0.0 2.0 0.00 0.00 0.00 51 1009.0
20260503020043 57 248 1.0 3.0 0.00 0.00 0.00 50 1009.0
20260503015533 57 221 1.0 4.0 0.00 0.00 0.00 52 1008.9
20260503015033 56 236 1.0 4.0 0.00 0.00 0.00 51 1008.9
20260503014546 56 220 0.0 3.0 0.00 0.00 0.00 51 1008.9
20260503014033 56 0 0.0 1.0 0.00 0.00 0.00 52 1009.0
20260503013533 56 0 0.0 1.0 0.00 0.00 0.00 51 1009.0
20260503013045 56 0 0.0 1.0 0.00 0.00 0.00 53 1009.2
20260503012532 56 0 0.0 1.0 0.00 0.00 0.00 52 1009.1
20260503012032 56 0 0.0 0.0 0.00 0.00 0.00 51 1009.1
20260503011547 56 0 0.0 0.0 0.00 0.00 0.00 52 1009.2
20260503011034 56 0 0.0 0.0 0.00 0.00 0.00 51 1009.3
20260503010535 57 0 0.0 0.0 0.00 0.00 0.00 50 1009.0
20260503010045 57 0 0.0 0.0 0.00 0.00 0.00 51 1009.3
20260503005532 57 0 0.0 0.0 0.00 0.00 0.00 51 1009.3
20260503005034 57 0 0.0 0.0 0.00 0.00 0.00 51 1009.3
20260503004548 58 0 0.0 0.0 0.00 0.00 0.00 52 1009.4
20260503004033 58 0 0.0 0.0 0.00 0.00 0.00 52 1009.3
20260503003533 58 0 0.0 1.0 0.00 0.00 0.00 49 1009.3
20260503003046 58 0 0.0 1.0 0.00 0.00 0.00 49 1009.4
20260503002533 59 335 0.0 1.0 0.00 0.00 0.00 47 1009.4
20260503002034 59 0 0.0 1.0 0.00 0.00 0.00 47 1009.4
20260503001545 59 41 0.0 1.0 0.00 0.00 0.00 48 1009.6
20260503001034 59 0 0.0 1.0 0.00 0.00 0.00 46 1009.6
20260503000532 59 0 0.0 0.0 0.00 0.00 0.00 46 1009.6